Regional Weather Roundup
Issued by NWS Upton, NY

Current Version | Previous Version | Graphics & Text | Print | Product List | Glossary Off
Versions: 1 2 3 4 5 6 7 8 9 10 11 12 13 14 15 16 17 18 19 20 21 22 23 24 25 26 27

000
ASUS41 KOKX 170209
RWROKX

REGIONAL WEATHER ROUNDUP
NATIONAL WEATHER SERVICE NEW YORK NY
900 PM EST THU NOV 16 2017

NOTE: "FAIR" INDICATES FEW OR NO CLOUDS BELOW 12,000 FEET WITH NO
SIGNIFICANT WEATHER AND/OR OBSTRUCTIONS TO VISIBILITY.

NYZ071-072-176-178-NJZ106-104-170300-
NEW YORK CITY METRO AREA

CITY           SKY/WX    TMP DP  RH WIND       PRES   REMARKS
Central Park   CLEAR     46  33  60 VRB7G17   29.90R
Bronx Bot Gard   N/A     46  32  57 W15       29.89R
LaGuardia APRT PTCLDY    48  35  60 W13G24    29.87R
Kennedy INTL   PTCLDY    47  34  60 W21       29.89R
Breezy Point     N/A     46 N/A N/A W16G28      N/A
Newark/Liberty PTCLDY    46  32  58 W17       29.88R
Teterboro      CLEAR     46  34  62 W21G30    29.87R
$$

NYZ177-179-078>081-170300-
LONG ISLAND NEW YORK

CITY           SKY/WX    TMP DP  RH WIND       PRES   REMARKS
Jones Beach      N/A     46 N/A N/A W21G29      N/A
Matinecock PT    N/A     48 N/A N/A W25         N/A
Farmingdale    CLEAR     47  33  58 W16G25    29.85S
MacArthur/ISP  PTCLDY    47  34  60 W13       29.84R
Shirley        PTCLDY    47  35  63 W10       29.84R
Mt Sinai Harb    N/A    N/A N/A N/A W14G21      N/A
Westhampton    PTCLDY    47  33  58 W15       29.83S
East Hampton   MOCLDY    47  35  63 W12G21    29.80S
Southold       NOT AVBL
Montauk          N/A     51  38  60 W16G25    29.81R
$$

NYZ052-065-067-170300-
HUDSON VALLEY

CITY           SKY/WX    TMP DP  RH WIND       PRES   REMARKS
White Plains   PTCLDY    45  33  63 W8        29.84R
Larchmont Harb   N/A     46 N/A N/A W9          N/A
Croton On Huds   N/A     46 N/A N/A NW28        N/A
Newburgh       PTCLDY    43  36  75 NW14      29.86R
Montgomery     PTCLDY    44  32  62 W13       29.85R
Poughkeepsie   CLOUDY    44  33  65 W7        29.84R
Albany         CLOUDY    43  32  65 W16G26    29.82R
$$

NJZ001-105-106-008-010-013-015-019>022-104-170300-
NEW JERSEY

CITY           SKY/WX    TMP DP  RH WIND       PRES   REMARKS
Newark/Liberty PTCLDY    46  32  58 W17       29.88R
Teterboro      CLEAR     46  34  62 W21G30    29.87R
Caldwell       CLEAR     45  35  68 W7        29.88S
Somerville     PTCLDY    45  33  63 VRB6      29.90R
Linden         FAIR      45  32  60 NW13      29.90R
Perth Amboy      N/A     46 N/A N/A W18         N/A
Sussex         RAIN      43  35  73 N13G18    29.90R
Andover          N/A     43  34  70 VRB6      29.89R
Trenton        CLEAR     45  31  58 W7        29.94R
Millville      CLEAR     48  32  53 W20G28    29.99R
Atlantic City  CLEAR     47  31  53 W16G28    29.96R
Wrightstown    CLEAR     46  30  54 W17G25    29.92R
Toms River     CLEAR     46  31  55 W14       29.94R
Belmar         CLEAR     45  31  58 W14G22    29.92R
$$

PAZ047>061-062-071-170300-
EASTERN PENNSYLVANIA

CITY           SKY/WX    TMP DP  RH WIND       PRES   REMARKS
Philadelphia   CLEAR     47  29  49 W14       29.99R
Allentown      MOCLDY    43  31  62 W16       29.95R
Scranton       CLOUDY    41  35  79 W10       29.93R
$$

CTZ002-004>006-009-010-012-RIZ004-006-007-MAZ004-011-015-170300-
SOUTHERN NEW ENGLAND
 IN CT

CITY           SKY/WX    TMP DP  RH WIND       PRES   REMARKS
Bradley INTL   PTCLDY    43  36  76 W14G24    29.77S
Hartford       CLEAR     45  37  73 W10       29.79R
Danbury        PTCLDY    45  33  63 W12G21    29.84R
Wtrbury/Oxford PTCLDY    42  33  70 W8        29.81R
Norwalk Harbor   N/A     46 N/A N/A W10         N/A
Bridgeport     CLEAR     47  35  63 W13G22    29.83R
Meriden        PTCLDY    44  34  67 CALM      29.80R
New Haven      CLEAR     47  35  63 W7        29.81R
Chester        FAIR      45  34  65 VRB7G14   29.78S
Groton         CLEAR     46  37  71 W9        29.78R
Wilimantic     MOCLDY    43  38  82 CALM      29.78R

 IN RI

CITY           SKY/WX    TMP DP  RH WIND       PRES   REMARKS
Providence     PTCLDY    44  40  85 W12       29.76R
Block Island   MOCLDY    48  40  73 W10G18    29.78R
Westerly       CLEAR     45  39  79 CALM      29.78R
 IN MA

CITY           SKY/WX    TMP DP  RH WIND       PRES   REMARKS
Boston         PTCLDY    45  40  82 W15G23    29.70F
Worcester      CLEAR     38  35  89 W10       29.72R WCI  31
Westfield      MOCLDY    43  37  79 W8        29.76S
Provincetown   CLEAR     45  41  86 W20G25    29.67S
Nantucket      PTCLDY    46  44  93 W12       29.72R
$$

ANZ330-335-338-340-345-350-353-355-170300-
COASTAL MARINE OBSERVATIONS


STATION/POSITION TIME  SKY/WX   TEMP    WIND        PRES    VSBY  WAVE
                                AIR SEA DIR/SP/G                  HT/PER
                 (UTC)          (F)     (DEG/KT/KT) (MB)    (MI)  (FT/S)
NY HARB ENTRANCE 0050            51 58  290/ 27/ 33 1010.1          4/ 4
20 S FIRE ISLAND 0050            52 58  290/ 27/ 31 1010.5          7/ 6
GREAT SOUTH BAY  0115            48 46  280/ 16/ 21   N/A
HUDSON CANYON    0050            54 60  310/ 25/ 31 1010.0         10/ 6
KINGS POINT      0136            48 53  320/ 17/ 21 1011.9
EXECUTION ROCKS  0130            49     250/ 16/ 21   N/A
WESTERN LI SOUND 0049            50     280/ 17/ 23   N/A           2/ 3
CENTRAL LI SOUND NOT AVBL
ROBBINS REEF     0142            47     270/ 20/ 24 1012.1
$$


>>>>>>>>>>>>>>>>>>>>>>>>>>>> KEY <<<<<<<<<<<<<<<<<<<<<<<<<<<
>                                                          <
>     SKY/WX - Sky Condition/Present Weather               <
>     TMP    - Temperature in Fahrenheit                   <
>     DP     - Dew Point in Fahrenheit                     <
>     RH     - Relative Humidity in Percent                <
>     WIND   - Direction (from) and Speed in MPH           <
>     PRES   - Mean Sea Level Pressure (inches of Hg)      <
>     WCI    - Wind Chill Index                            <
>     VSB    - VISIBILITY IN MILES                         <
>     HX     - HEAT INDEX                                  <
>     TC     - TEMPERATURE IN CELSIUS                      <
>     VRB    - VARIABLE WIND DIRECTION                     <
>                                                          <
>>>>>>>>>>>>>>>>>>>>>>>>>>>> KEY <<<<<<<<<<<<<<<<<<<<<<<<<<<




USA.gov is the U.S. government's official web portal to all federal, state and local government web resources and services.